WAT89 VTCC-VYMD

Flight info

Callsign WAT89
Flight time N/A
Altitude 30000
Route MHS1A MHS DCT LK DCT DOGIP DOGI1W
Aircraft A20N/M-SDE2E3FGHIRWXY/LB1

Departure

Time 2026-05-07 11:57
Airport Chiang Mai International Airport (VTCC)

Arrival

Time N/A
Airport Mandalay International Airport (VYMD)
Time Latitude Longitude Altitude Speed Heading
2026-05-07 11:49 18.76791 98.96693 1030 ft 1 kts 128°
2026-05-07 11:50 18.76796 98.96686 1030 ft 1 kts 147°
2026-05-07 11:50 18.76802 98.96682 1030 ft 1 kts 166°
2026-05-07 11:52 18.76775 98.96684 1030 ft 10 kts 179°
2026-05-07 11:52 18.76689 98.96676 1027 ft 15 kts 187°
2026-05-07 11:52 18.76588 98.96645 1028 ft 15 kts 228°
2026-05-07 11:52 18.76580 98.96599 1028 ft 0 kts 268°
2026-05-07 11:53 18.76580 98.96593 1028 ft 3 kts 268°
2026-05-07 11:53 18.76578 98.96559 1025 ft 7 kts 265°
2026-05-07 11:53 18.76545 98.96518 1027 ft 9 kts 198°
2026-05-07 11:53 18.76471 98.96518 1025 ft 12 kts 179°
2026-05-07 11:54 18.76378 98.96519 1024 ft 15 kts 180°
2026-05-07 11:54 18.76267 98.96518 1025 ft 17 kts 181°
2026-05-07 11:54 18.76139 98.96515 1023 ft 19 kts 176°
2026-05-07 11:54 18.75999 98.96519 1023 ft 21 kts 179°
2026-05-07 11:55 18.75846 98.96515 1021 ft 22 kts 178°
2026-05-07 11:55 18.75686 98.96515 1020 ft 24 kts 180°
2026-05-07 11:55 18.75516 98.96505 1018 ft 25 kts 195°
2026-05-07 11:55 18.75376 98.96425 1016 ft 18 kts 210°
2026-05-07 11:56 18.75317 98.96331 1015 ft 17 kts 270°
2026-05-07 11:56 18.75411 98.96282 1015 ft 18 kts 358°
2026-05-07 11:56 18.75695 98.96283 1019 ft 75 kts
2026-05-07 11:56 18.76435 98.96287 1026 ft 134 kts
2026-05-07 11:57 18.77530 98.96290 1041 ft 178 kts
2026-05-07 11:57 18.78781 98.96291 1764 ft 170 kts
2026-05-07 11:57 18.79876 98.96672 2421 ft 174 kts 45°
2026-05-07 11:57 18.80313 98.97855 3110 ft 183 kts 97°
2026-05-07 11:58 18.79740 98.99059 3541 ft 193 kts 143°
2026-05-07 11:58 18.78438 98.99463 3778 ft 208 kts 189°
2026-05-07 11:58 18.77082 98.98784 4013 ft 230 kts 219°
2026-05-07 11:58 18.75743 98.97691 4320 ft 257 kts 214°
2026-05-07 11:59 18.74083 98.96836 4944 ft 272 kts 199°
2026-05-07 11:59 18.72220 98.96391 5850 ft 278 kts 189°
2026-05-07 11:59 18.70270 98.96216 6715 ft 284 kts 184°
2026-05-07 11:59 18.68318 98.95910 7597 ft 286 kts 205°
2026-05-07 12:00 18.66768 98.94642 8417 ft 286 kts 237°
2026-05-07 12:00 18.66109 98.92689 9274 ft 286 kts 270°
2026-05-07 12:00 18.66552 98.90671 10105 ft 288 kts 300°
2026-05-07 12:00 18.67802 98.88954 10574 ft 307 kts 315°
2026-05-07 12:01 18.69452 98.87393 10840 ft 331 kts 321°
2026-05-07 12:01 18.71262 98.85853 11360 ft 342 kts 321°
2026-05-07 12:01 18.73115 98.84268 12156 ft 344 kts 321°
2026-05-07 12:01 18.75170 98.82959 12925 ft 349 kts 340°
2026-05-07 12:02 18.77570 98.82552 13677 ft 354 kts
2026-05-07 12:02 18.80018 98.83134 14308 ft 362 kts 23°
2026-05-07 12:02 18.82120 98.84624 14916 ft 370 kts 44°
2026-05-07 12:02 18.83631 98.86841 15525 ft 378 kts 64°
2026-05-07 12:03 18.84396 98.89472 16111 ft 384 kts 76°
2026-05-07 12:03 18.85329 98.92114 16723 ft 386 kts 60°
2026-05-07 12:03 18.86967 98.94357 17328 ft 389 kts 43°
2026-05-07 12:03 18.89178 98.96023 17816 ft 395 kts 26°
2026-05-07 12:04 18.91780 98.96939 18405 ft 394 kts
2026-05-07 12:04 18.94501 98.97029 18997 ft 393 kts 352°
2026-05-07 12:04 18.97156 98.96310 19433 ft 396 kts 335°
2026-05-07 12:04 18.99518 98.94822 19918 ft 397 kts 319°
2026-05-07 12:05 19.01405 98.92693 20400 ft 399 kts 303°
2026-05-07 12:05 19.02677 98.90084 20814 ft 403 kts 288°
2026-05-07 12:05 19.03223 98.87190 21334 ft 403 kts 272°
2026-05-07 12:05 19.03238 98.84212 21756 ft 408 kts 269°
2026-05-07 12:06 19.03390 98.81209 22281 ft 411 kts 275°
2026-05-07 12:06 19.03876 98.78214 22743 ft 416 kts 281°
2026-05-07 12:06 19.04630 98.75242 23212 ft 421 kts 285°
2026-05-07 12:06 19.05531 98.72283 23613 ft 425 kts 287°
2026-05-07 12:07 19.06501 98.69327 24116 ft 424 kts 287°
2026-05-07 12:07 19.07483 98.66382 24580 ft 425 kts 287°
2026-05-07 12:07 19.08464 98.63428 25003 ft 427 kts 287°
2026-05-07 12:07 19.09444 98.60460 25419 ft 428 kts 287°
2026-05-07 12:08 19.10425 98.57477 25837 ft 430 kts 287°
2026-05-07 12:08 19.11405 98.54486 26232 ft 432 kts 287°
2026-05-07 12:08 19.12387 98.51484 26641 ft 433 kts 288°
2026-05-07 12:08 19.13372 98.48473 27006 ft 434 kts 288°
2026-05-07 12:09 19.14361 98.45445 27389 ft 436 kts 288°
2026-05-07 12:09 19.15352 98.42412 27750 ft 437 kts 288°
2026-05-07 12:09 19.16345 98.39368 28114 ft 439 kts 288°
2026-05-07 12:09 19.17343 98.36310 28471 ft 440 kts 288°